Temperature
20 20 20 20 20 20 20 20 20 20 20 20 20 20 20 20 19 19 19 19 19 19 19 19 19 19 19 19 18 18 18 18 18 18 18 18 18 18 18 18 18 18 18
21 20 20 20 20 20 20 20 20 20 20 20 20 20 20 20 19 19 19 19 19 19 19 19 19 19 19 19 18 18 18 18 18 18 18 18 18 18 18 18 18 18 18
21 21 21 20 20 20 20 20 20 20 20 20 20 20 20 20 19 19 19 19 19 19 19 19 19 19 19 19 18 18 18 18 18 18 18 18 18 18 18 18 18 18 18
21 21 21 21 20 20 20 20 20 20 20 20 20 20 19 19 19 19 19 19 19 19 19 19 19 19 19 19 19 19 18 18 19 19 18 18 18 18 18 18 18 18 18
21 21 21 21 21 20 20 20 20 20 20 19 19 19 19 19 19 19 19 19 19 19 19 19 19 19 19 19 19 19 19 19 19 19 18 18 18 18 18 18 18 18 18
22 21 21 21 21 21 20 20 20 20 20 20 19 19 19 19 19 19 19 19 19 19 19 19 19 19 19 19 19 19 19 19 19 19 18 18 18 18 18 18 18 18 18
22 21 21 21 21 21 20 20 20 20 20 20 19 19 19 19 19 19 19 19 19 19 19 19 19 19 19 19 19 19 19 18 18 18 18 18 18 18 18 18 18 18 18
22 21 21 21 21 21 20 20 20 20 20 20 20 19 19 19 19 19 19 19 19 19 19 19 19 19 19 19 19 19 18 18 18 18 18 18 18 18 18 18 18 18 18
22 21 21 21 21 21 20 20 20 20 20 20 20 19 19 19 19 19 19 19 19 19 19 19 19 19 19 19 19 18 18 18 18 18 18 18 18 18 18 18 18 18 18
22 21 21 21 21 21 20 20 20 20 20 20 19 19 19 19 19 19 19 19 19 19 19 19 19 19 19 19 19 18 18 18 18 18 18 18 18 18 18 18 18 18 18
21 21 21 21 21 21 20 20 20 20 20 19 19 19 19 19 19 19 19 19 19 19 19 19 19 19 19 19 19 18 18 18 18 18 18 18 18 18 18 18 18 18 18
21 21 21 21 21 21 20 20 20 20 20 19 19 19 19 19 19 19 19 19 19 19 19 19 19 19 19 19 19 18 18 18 19 19 19 18 18 18 18 18 18 18 18
22 21 21 21 21 21 20 20 20 20 20 20 19 19 19 19 19 19 19 19 19 19 19 19 19 18 18 19 19 19 18 18 19 18 19 18 18 18 18 18 18 18 18
22 21 21 21 21 21 21 20 20 20 20 20 20 19 19 19 19 19 19 19 19 19 19 19 19 19 19 19 19 19 19 18 18 18 18 18 18 18 18 18 18 18 18
22 21 21 21 21 21 21 20 20 20 20 20 20 19 19 19 19 19 19 19 19 19 19 19 19 19 19 19 18 18 18 18 18 18 18 18 18 18 18 18 18 18 18
22 22 21 21 21 21 20 20 20 20 20 20 20 19 19 19 19 19 19 19 19 19 19 19 19 19 19 18 18 18 18 18 18 18 18 18 18 18 18 18 18 18 18
22 22 22 21 21 21 21 20 20 20 20 20 20 19 19 19 19 19 19 19 19 19 19 19 19 19 18 18 18 18 18 18 18 18 18 18 18 18 18 18 18 18 18
22 22 22 21 21 21 21 20 20 20 20 20 19 19 19 19 19 19 19 19 19 19 19 19 19 19 19 18 18 18 18 18 18 18 18 18 18 18 18 18 18 18 18
23 22 22 22 21 21 21 20 20 20 20 20 19 19 19 19 19 19 19 19 19 19 19 19 19 19 19 18 18 18 18 18 18 18 18 18 18 18 18 18 18 18 18
23 22 22 22 21 21 21 20 20 20 20 20 19 19 19 19 19 19 19 19 19 18 18 18 18 18 18 18 18 18 18 18 18 18 18 18 18 18 18 18 18 18 18
23 22 22 22 21 21 21 20 20 20 20 20 19 19 19 19 19 19 19 19 18 18 18 18 18 18 18 18 18 18 18 18 18 18 18 18 18 18 18 18 18 18 18
23 23 22 22 21 21 21 21 20 20 20 19 19 19 19 19 19 19 19 19 18 18 18 18 18 18 18 18 18 18 18 18 18 18 18 18 18 18 18 18 18 18 18
23 23 22 22 22 21 21 21 20 20 20 19 19 19 19 19 19 19 19 18 18 18 18 18 18 18 18 18 18 18 18 18 18 18 18 18 18 18 18 18 18 17 17
23 23 22 22 22 21 21 21 20 20 20 20 19 19 19 18 18 18 18 18 18 18 18 18 18 18 18 18 18 18 17 17 17 17 17 17 17 18 17 17 17 17 17
23 23 22 22 22 21 21 21 20 20 20 19 19 19 19 18 18 18 18 18 18 18 18 18 18 18 17 17 17 17 17 17 17 17 17 17 17 17 17 17 17 17 17
23 22 22 22 22 21 21 21 20 20 20 19 19 19 19 18 18 18 18 18 18 18 18 18 17 17 17 17 17 17 17 17 17 17 17 17 17 17 17 17 17 17 17
Wind_Speed
4 7 11 12 12 12 12 12 12 13 13 13 14 14 14 15 15 15 15 14 14 14 14 14 13 13 13 13 14 14 14 14 14 14 14 13 13 13 13 13 13 12 14
8 10 13 13 13 13 12 12 12 12 12 12 13 13 13 13 13 13 13 13 13 13 13 13 13 12 13 13 13 13 13 13 13 13 12 12 12 12 12 13 13 12 14
10 10 12 13 13 13 12 12 12 12 12 12 12 13 13 13 13 13 12 12 12 13 13 12 12 11 12 12 12 12 12 12 12 12 11 9 10 11 12 13 13 14 13
11 11 12 14 13 13 13 12 11 11 11 11 11 12 12 11 11 12 12 11 12 12 12 11 11 10 10 11 11 11 11 11 10 10 8 8 8 11 12 13 13 13 13
10 10 13 15 14 13 12 12 11 11 10 10 11 11 10 10 10 11 11 10 10 11 11 10 10 9 9 9 10 9 9 9 9 8 7 7 8 11 13 13 13 13 12
9 10 13 15 14 13 12 11 11 11 10 10 10 10 9 9 10 10 10 9 9 9 9 9 8 8 8 9 9 8 8 8 7 6 6 8 9 11 13 13 13 13 12
9 9 12 14 14 13 12 11 10 10 10 10 9 9 8 8 9 9 9 8 8 8 8 8 7 7 7 8 8 7 7 8 6 5 6 8 10 12 13 13 13 13 13
10 8 10 13 13 13 12 11 10 9 9 9 9 9 8 7 8 8 8 7 7 7 7 7 7 7 7 7 8 7 6 7 6 6 7 8 11 13 14 13 13 13 13
9 7 7 9 11 12 12 11 10 9 9 9 9 8 7 7 7 7 6 6 6 6 5 6 7 7 7 7 7 7 6 7 5 6 7 8 12 15 15 14 14 13 13
7 6 6 6 7 8 9 10 9 8 8 8 8 7 7 7 6 6 6 6 6 6 5 5 6 6 6 6 7 7 6 6 6 6 6 8 12 15 15 14 14 14 13
7 5 5 5 6 7 8 8 8 7 7 6 6 6 5 4 4 5 6 6 6 6 5 5 7 6 6 5 7 7 6 5 6 5 6 8 11 13 15 15 14 14 14
8 6 5 6 6 6 6 6 6 5 5 4 4 4 4 4 4 4 5 6 7 6 6 6 6 6 5 4 5 7 4 6 6 6 7 11 12 13 14 14 14 14 14
9 8 7 6 6 5 3 5 4 4 4 3 4 4 3 3 2 2 2 3 3 5 4 3 3 3 3 3 3 3 5 6 6 7 9 12 13 13 14 13 14 14 14
8 8 7 7 6 6 5 4 4 3 3 3 4 5 3 1 1 1 1 1 2 2 2 2 2 2 3 4 4 3 4 5 6 6 8 11 13 13 13 13 13 13 13
8 8 8 7 6 5 4 4 4 3 3 4 4 4 4 2 2 1 1 1 1 2 2 2 2 2 2 3 3 4 4 5 6 6 6 9 11 12 12 13 13 13 14
9 8 8 7 6 6 5 4 3 3 3 4 3 3 4 3 2 2 1 1 1 1 2 2 2 2 2 2 2 3 4 5 6 7 6 7 9 11 11 12 12 13 14
10 9 8 8 7 6 5 5 4 3 4 3 3 3 3 3 3 2 1 1 0 1 1 2 2 1 1 1 1 2 3 4 5 6 6 7 7 8 10 10 11 12 13
9 9 8 8 7 6 5 4 3 4 4 3 3 3 3 3 4 3 1 1 1 1 2 2 2 2 1 1 0 1 1 3 4 5 5 6 6 6 8 9 10 11 12
10 9 8 7 7 6 5 4 4 4 4 3 4 3 3 3 4 3 1 1 2 2 2 1 2 2 1 1 0 1 1 2 3 4 4 5 6 7 7 8 9 9 11
10 9 8 7 7 6 4 4 3 3 2 3 3 3 3 3 4 3 2 2 2 3 2 2 2 2 1 0 1 1 0 1 2 3 4 4 4 6 7 7 7 8 9
9 8 8 8 7 6 4 4 3 2 2 2 2 3 3 3 4 3 2 2 2 3 2 2 2 2 1 1 2 2 2 1 1 2 2 2 3 5 5 6 7 7 7
10 9 8 8 8 7 5 4 3 3 2 2 1 2 3 3 3 4 3 2 2 2 2 2 2 2 1 2 2 2 2 3 2 1 1 2 3 2 3 5 6 7 7
10 10 9 9 8 7 6 4 4 3 2 1 1 1 1 2 3 3 3 3 2 2 1 1 1 2 1 1 1 2 2 2 2 2 1 1 1 1 2 3 4 6 8
10 9 8 9 8 7 7 6 6 5 3 3 3 3 2 2 3 3 3 3 2 2 1 1 1 1 2 1 1 1 1 2 1 1 3 2 1 1 1 2 2 4 6
9 8 8 8 8 7 8 8 7 5 3 2 3 3 2 2 2 3 3 3 2 2 1 1 2 2 2 1 1 1 1 1 1 1 1 3 2 1 2 2 2 2 4
7 7 7 7 7 7 8 7 8 7 6 5 4 3 2 1 1 1 2 2 2 2 1 1 1 2 2 2 1 1 1 1 1 1 2 2 2 3 2 1 1 3 5
Wind_Direction
155 153 139 132 124 118 111 106 102 104 105 104 104 106 111 114 119 122 126 128 130 132 134 136 135 135 135 135 135 134 133 133 132 132 132 133 133 132 131 132 130 127 128
152 150 138 132 128 121 115 110 106 106 108 108 109 109 112 119 122 123 127 129 130 133 134 135 134 136 137 137 136 136 135 135 134 135 136 138 138 138 136 137 135 135 134
141 146 140 133 131 127 121 116 112 110 111 113 115 116 116 118 123 126 127 130 130 132 135 136 136 137 138 140 141 141 140 139 140 140 140 136 139 139 138 142 141 140 138
142 145 143 137 135 132 127 122 118 116 115 116 118 119 120 121 123 128 129 130 134 134 135 138 141 142 141 144 148 150 147 146 148 148 144 145 146 146 143 146 145 144 143
141 147 147 141 138 135 132 128 125 122 119 121 123 123 125 128 128 130 134 135 138 140 141 144 147 147 147 149 151 152 152 154 156 154 149 154 153 153 153 152 150 149 149
141 147 148 143 142 140 135 132 130 126 123 124 126 126 126 131 134 134 136 140 143 146 148 151 155 157 159 159 159 160 163 166 160 157 157 157 153 158 158 157 154 153 153
143 147 148 145 142 141 138 135 133 127 126 127 128 128 128 134 141 144 146 150 152 153 158 161 166 166 170 171 172 174 176 176 161 159 155 155 164 168 166 164 162 160 160
145 146 149 146 143 141 141 139 137 133 131 134 134 133 133 134 143 151 155 155 160 164 161 167 170 173 177 179 181 184 186 181 174 169 161 167 176 175 173 171 170 169 166
142 142 142 152 152 149 147 146 142 140 139 140 140 140 140 138 140 150 156 155 156 157 162 173 180 184 185 185 188 192 193 188 173 171 177 176 183 181 179 179 178 176 174
137 141 142 146 153 155 154 150 148 146 144 145 147 146 147 148 151 159 168 169 168 170 177 184 189 194 197 199 194 196 198 189 181 176 175 181 185 185 184 186 186 184 182
138 146 146 146 146 155 155 154 152 150 155 153 159 154 157 171 180 181 183 185 187 189 196 198 198 203 209 208 199 196 194 180 175 173 178 185 185 186 189 191 191 189 188
152 160 163 159 158 158 159 150 152 152 158 163 172 177 174 185 199 194 199 198 201 201 204 208 208 211 213 207 208 200 187 177 173 180 190 191 190 189 191 193 194 193 192
159 162 168 166 162 162 154 151 160 163 166 172 179 183 174 183 199 191 192 209 212 209 209 211 218 225 209 199 203 190 184 175 179 192 194 193 193 193 193 194 196 197 196
144 153 157 160 159 160 152 156 158 162 172 178 180 172 158 139 152 167 155 173 202 210 189 185 198 215 209 214 206 186 181 175 182 191 199 196 196 195 193 196 198 199 201
145 150 151 151 153 148 139 149 148 163 173 177 167 167 158 136 155 152 160 154 198 194 175 174 177 189 193 202 193 180 175 173 170 173 190 195 197 196 195 197 199 202 202
154 155 152 146 145 137 139 141 142 156 157 152 149 160 155 153 143 127 126 120 161 205 185 166 164 172 187 185 196 189 183 170 173 178 187 193 197 196 195 196 200 204 207
158 155 154 150 145 140 141 144 137 141 139 134 143 154 144 146 142 124 101 80 113 182 149 131 121 117 151 150 160 182 181 172 178 185 187 189 194 197 199 202 202 205 208
153 153 157 153 149 146 142 139 130 136 136 138 144 144 137 131 133 116 89 47 39 77 78 103 106 114 116 118 120 171 174 177 188 185 185 187 193 197 201 207 208 209 210
157 156 157 150 153 152 143 136 134 133 132 139 140 140 138 128 128 118 91 47 66 68 49 81 87 102 97 82 124 137 172 182 185 185 189 196 198 197 198 206 210 210 210
159 158 156 152 156 150 139 124 116 115 127 132 141 148 148 138 125 116 96 65 83 76 50 49 70 58 88 107 55 53 94 199 191 192 200 203 206 203 201 205 207 210 209
157 157 159 156 162 154 149 147 137 140 148 147 156 153 145 140 129 111 93 68 78 91 87 71 75 57 30 59 67 29 4 334 203 218 208 204 209 207 195 199 203 203 208
165 164 165 166 166 164 167 161 151 144 146 151 156 137 143 133 132 123 114 107 97 88 66 56 68 68 16 50 103 88 12 350 336 276 209 204 210 205 206 210 205 201 201
172 174 175 173 168 167 156 137 127 103 89 99 122 146 147 142 128 114 117 112 113 107 97 56 71 101 82 6 73 127 135 233 309 335 319 256 209 202 221 209 208 210 207
182 180 174 171 167 166 156 153 154 155 165 184 168 157 151 150 141 132 122 118 119 113 106 65 87 99 102 34 346 35 155 164 158 323 334 324 292 239 245 227 223 217 209
181 177 175 167 167 165 161 162 161 161 165 150 135 139 150 155 143 141 127 115 115 117 107 74 64 75 95 105 60 12 32 39 95 153 287 316 333 303 262 241 210 213 207
177 173 170 164 171 170 166 166 164 164 159 148 149 157 164 152 138 143 125 123 124 127 130 121 93 83 79 77 70 74 112 128 188 165 218 271 294 295 285 253 214 216 215
Height
1516 1516 1516 1516 1516 1515 1515 1515 1515 1515 1515 1515 1515 1515 1516 1517 1518 1519 1520 1521 1522 1524 1525 1526 1527 1529 1530 1532 1533 1534 1536 1537 1539 1540 1541 1542 1543 1544 1545 1545 1546 1547 1548
1515 1516 1517 1517 1516 1516 1516 1516 1516 1516 1516 1516 1516 1517 1517 1518 1519 1520 1521 1522 1523 1524 1526 1527 1528 1530 1531 1532 1534 1535 1537 1538 1539 1541 1542 1543 1544 1544 1545 1546 1547 1548 1548
1516 1517 1517 1518 1518 1517 1517 1517 1517 1517 1517 1517 1517 1518 1518 1519 1520 1521 1522 1523 1524 1525 1526 1527 1529 1530 1531 1533 1534 1536 1537 1539 1540 1541 1543 1543 1544 1545 1546 1547 1547 1548 1549
1517 1518 1518 1519 1519 1519 1519 1519 1518 1518 1518 1518 1519 1519 1520 1520 1521 1522 1523 1523 1525 1526 1527 1528 1529 1531 1532 1533 1535 1537 1538 1539 1541 1542 1543 1544 1545 1546 1546 1547 1548 1549 1549
1518 1519 1519 1520 1520 1520 1520 1520 1520 1520 1520 1520 1520 1520 1521 1521 1522 1523 1523 1524 1525 1526 1527 1529 1530 1531 1532 1534 1535 1537 1538 1540 1541 1542 1543 1544 1545 1546 1546 1547 1548 1549 1550
1519 1519 1520 1521 1521 1521 1521 1521 1521 1521 1521 1521 1521 1522 1522 1522 1523 1523 1524 1525 1526 1527 1528 1529 1530 1531 1532 1534 1535 1537 1539 1540 1541 1542 1543 1544 1545 1546 1547 1547 1548 1549 1550
1519 1520 1521 1522 1522 1522 1522 1522 1523 1522 1522 1522 1522 1523 1523 1523 1524 1524 1525 1526 1526 1527 1528 1529 1530 1531 1533 1534 1535 1537 1539 1540 1541 1542 1543 1544 1545 1546 1547 1547 1548 1549 1550
1520 1521 1522 1523 1523 1523 1524 1524 1524 1524 1524 1524 1524 1524 1524 1524 1525 1525 1526 1526 1527 1527 1528 1529 1530 1531 1532 1534 1535 1537 1538 1539 1540 1542 1543 1544 1545 1546 1546 1547 1548 1549 1550
1522 1522 1523 1523 1524 1524 1525 1525 1525 1525 1525 1525 1525 1525 1525 1526 1526 1526 1526 1526 1527 1527 1528 1529 1530 1531 1532 1533 1535 1536 1537 1539 1540 1541 1542 1543 1544 1545 1546 1547 1548 1548 1549
1523 1523 1524 1524 1525 1525 1526 1526 1526 1526 1526 1526 1526 1526 1526 1527 1527 1527 1527 1527 1527 1528 1528 1529 1529 1530 1532 1533 1534 1535 1537 1538 1539 1540 1541 1542 1543 1544 1545 1546 1547 1548 1549
1523 1524 1524 1525 1526 1526 1527 1527 1527 1527 1527 1527 1527 1527 1527 1527 1527 1527 1527 1527 1528 1528 1528 1529 1529 1530 1531 1532 1533 1534 1536 1537 1538 1539 1540 1541 1542 1543 1544 1545 1546 1547 1548
1523 1524 1525 1525 1526 1527 1527 1528 1528 1528 1528 1527 1528 1527 1527 1527 1527 1527 1527 1527 1528 1528 1528 1528 1529 1530 1531 1532 1533 1534 1535 1536 1537 1538 1539 1540 1541 1542 1543 1544 1545 1546 1547
1522 1524 1525 1526 1527 1527 1528 1528 1528 1528 1528 1528 1528 1527 1527 1527 1527 1527 1527 1527 1527 1528 1528 1528 1529 1529 1530 1531 1532 1533 1534 1535 1536 1537 1538 1539 1540 1540 1541 1542 1543 1544 1545
1522 1523 1525 1526 1527 1527 1528 1528 1529 1529 1529 1528 1528 1528 1527 1527 1527 1527 1527 1527 1527 1527 1528 1528 1528 1529 1529 1530 1531 1532 1533 1534 1535 1536 1536 1538 1539 1539 1540 1541 1542 1542 1543
1522 1523 1525 1526 1527 1528 1528 1528 1529 1529 1529 1529 1529 1528 1528 1528 1528 1528 1527 1528 1527 1527 1528 1528 1528 1528 1529 1529 1530 1531 1532 1533 1533 1534 1535 1536 1537 1538 1539 1539 1540 1540 1541
1522 1524 1525 1527 1527 1528 1528 1529 1529 1530 1530 1530 1529 1529 1529 1529 1528 1528 1527 1528 1528 1528 1528 1528 1528 1528 1528 1529 1529 1530 1530 1531 1532 1533 1534 1535 1536 1536 1537 1538 1538 1539 1540
1523 1524 1525 1526 1527 1528 1528 1529 1529 1530 1530 1530 1530 1530 1530 1529 1529 1529 1528 1528 1528 1528 1528 1528 1528 1528 1528 1528 1528 1529 1529 1530 1531 1532 1533 1534 1534 1535 1535 1536 1537 1537 1538
1522 1524 1525 1526 1527 1528 1528 1529 1529 1530 1530 1531 1530 1530 1530 1530 1530 1529 1529 1529 1529 1528 1528 1528 1527 1527 1527 1527 1527 1528 1528 1529 1530 1531 1531 1532 1533 1533 1534 1534 1535 1536 1536
1522 1523 1525 1526 1527 1528 1529 1529 1530 1530 1531 1531 1531 1531 1530 1530 1530 1530 1529 1529 1529 1528 1528 1527 1527 1527 1527 1527 1527 1528 1528 1528 1529 1529 1530 1531 1531 1532 1532 1533 1533 1534 1534
1521 1523 1524 1525 1526 1528 1529 1529 1530 1530 1531 1531 1531 1531 1531 1530 1530 1530 1530 1529 1529 1528 1528 1527 1527 1526 1527 1527 1527 1527 1528 1528 1528 1529 1529 1529 1530 1530 1531 1531 1532 1532 1532
1520 1522 1523 1524 1525 1526 1527 1528 1529 1529 1530 1530 1530 1531 1531 1530 1530 1530 1530 1529 1529 1529 1528 1527 1527 1526 1526 1527 1527 1527 1527 1527 1528 1528 1528 1528 1528 1529 1529 1530 1530 1530 1530
1519 1520 1522 1523 1524 1525 1526 1527 1528 1529 1529 1530 1530 1530 1530 1530 1530 1530 1529 1529 1529 1529 1528 1527 1527 1526 1526 1526 1527 1526 1527 1528 1527 1527 1527 1527 1527 1528 1528 1528 1528 1529 1529
1517 1518 1519 1521 1522 1524 1525 1527 1528 1529 1529 1529 1529 1529 1529 1529 1529 1529 1529 1529 1528 1528 1528 1527 1527 1526 1526 1526 1526 1526 1526 1526 1526 1526 1526 1526 1526 1526 1526 1527 1527 1527 1527
1515 1516 1518 1519 1521 1522 1524 1525 1526 1526 1527 1528 1528 1528 1529 1529 1529 1529 1529 1528 1528 1528 1527 1527 1527 1526 1526 1526 1526 1526 1526 1526 1525 1525 1525 1525 1525 1525 1525 1525 1525 1525 1526
1512 1514 1515 1517 1519 1520 1522 1523 1524 1525 1526 1527 1527 1528 1528 1528 1528 1528 1528 1528 1528 1527 1527 1527 1526 1526 1525 1525 1525 1525 1525 1525 1524 1524 1523 1524 1524 1524 1524 1524 1524 1524 1524
1510 1512 1514 1516 1517 1519 1520 1521 1522 1523 1524 1525 1526 1526 1526 1527 1527 1527 1527 1527 1527 1527 1527 1526 1526 1525 1525 1525 1524 1524 1524 1524 1523 1523 1522 1522 1522 1522 1523 1523 1523 1523 1523